IRIDIUM 33 DEB, 33773

Orbit data source: Space-Track

IRIDIUM 33 DEB, 33773 is space debris in LEO originally from a launch on Sun, 14 Sep 1997 UTC launched from the Tyuratam Missile And Space Complex (TTMTR). The debris from Iridium 33, an American commercial communications satellite, has been tracked extensively since its accidental collision with the defunct Russian satellite Cosmos 2251 in 2009. This event, occurring at high speed in low Earth orbit (LEO), generated thousands of pieces of space debris, significantly increasing the risk of further collisions. The Iridium 33 debris cloud has impacted space traffic management and orbital debris mitigation strategies, making it a subject of ongoing study in space situational awareness.

Loading next visibility...
Identifier
33773, 1997-051L
Orbit
LEO
Country
Flag of USUS
Related business
Manufacturer
Unknown
Mission
Spacecraft
Bus & Motor
Unknown
Mass
Unknown
Launch date (UTC)
1997-09-14 (29 years ago)
Launch vehicle
Unknown
Launch site
Tyuratam Missile And Space Complex (TTMTR)
Object type
Payload
Rocket body
Debris
Shape & HBR
Unknown shape, 0.8 m
Radar Cross Section
Medium (>0.1 m² and <1 m²)

Expand to show TLE details & history
Last TLE update: 21 hours ago

TLE from 21 hours ago
0 IRIDIUM 33 DEB
1 33773U 97051L   26267.02533108  .00000522  00000-0  14753-3 0  9992
2 33773  86.3980 299.6715 0008918 293.4640  66.5624 14.43770321924637
Epoch: 2026-09-24T00:36Z
TLE epoch observation values (Epoch: 2026-09-24T00:36:28.605Z)
Latitude
0.00006°
Longitude
-72.31571°
Altitude
746.61 km
Speed
7.483 km/s
True Right ascension
19h 58m 41s
True Declination
0° 00' 00"
Sunlit
Object was in full shadow at epoch
Visualization orbit readout
Latitude
Unknown
Longitude
Unknown
Altitude
Unknown
Speed
Unknown
Apparent Right ascension
Unknown
Apparent Declination
Unknown
Sunlit
N/A
Visualization observer readout
Local Sidereal Time
15:05:29
Azimuth
Unknown
Elevation
Unknown
Doppler factor
Unknown
Orbital elements
Apogee altitude
749.37 km
Perigee altitude
736.669 km
Semi-major axis
7,121.156 km
Eccentricity
0.00089
Inclination
86.398°
RAAN
299.6715°
Arg. of periapsis
293.464°
True anomaly
66.6562°
Mean anomaly
66.5624°
Eccentric anomaly
66.6093°
Mean motion
3.61175 °/min
Orbital period
99.67 mins
BSTAR
0.00014753

Documentation

Showing up to 5 results
|